CW9692 Weather Reports


time (UTC)temp
F
wind
direction
speed
knots
gust
knots
rain 1hr
in
rain 24hr
in
rain mn
in
humidity
%
barometer
mb
20260505051506 63 216 1.7 6.1 0.00 0.00 0.00 56 1011.9
20260505041530 61 150 0.0 0.0 0.00 0.00 0.00 59 1011.9
20260505040013 60 146 0.0 0.0 0.00 0.00 0.00 60 1011.7
20260505034514 60 146 0.0 0.0 0.00 0.00 0.00 62 1011.7
20260505033020 60 146 0.0 0.0 0.00 0.00 0.00 64 1011.7
20260505031523 60 146 0.0 0.0 0.00 0.00 0.00 67 1011.7
20260505030026 61 146 0.0 0.0 0.00 0.00 0.00 68 1011.7
20260505024532 61 146 0.0 0.0 0.00 0.00 0.00 68 1011.8
20260505023016 62 146 0.0 0.0 0.00 0.00 0.00 67 1011.7
20260505021504 63 146 0.0 0.0 0.00 0.00 0.00 63 1011.7
20260505020004 64 147 0.0 0.0 0.00 0.00 0.00 59 1011.5
20260505014504 64 147 0.0 0.0 0.00 0.00 0.00 55 1011.5
20260505013011 63 146 0.0 0.0 0.00 0.00 0.00 57 1011.4
20260505011503 64 146 0.0 0.0 0.00 0.00 0.00 61 1011.3
20260505010004 64 146 0.0 0.0 0.00 0.00 0.00 62 1011.1
20260505004505 64 147 0.0 0.0 0.00 0.00 0.00 63 1011.1
20260505003004 65 147 0.0 0.0 0.00 0.00 0.00 63 1011.1
20260505001503 65 147 0.0 0.0 0.00 0.00 0.00 61 1011.1
20260505000005 67 147 0.0 0.0 0.00 0.00 0.00 59 1011.0
20260504234507 68 147 0.0 0.0 0.00 0.00 0.00 56 1011.0
20260504233006 69 147 0.0 6.1 0.00 0.00 0.00 54 1010.8
20260504231513 69 147 0.0 6.1 0.00 0.00 0.00 52 1010.9
20260504230008 69 141 1.7 6.1 0.00 0.00 0.00 51 1010.9
20260504224506 69 152 1.7 6.1 0.00 0.00 0.00 50 1010.8
20260504223004 69 172 2.6 12.2 0.00 0.00 0.00 48 1011.0
20260504221506 69 147 4.3 18.2 0.00 0.00 0.00 46 1010.9
20260504220016 70 165 5.2 13.0 0.00 0.00 0.00 43 1011.0
20260504214509 70 156 3.5 13.9 0.00 0.00 0.00 44 1011.0
20260504213008 70 129 3.5 15.6 0.00 0.00 0.00 43 1011.0
20260504211508 71 194 6.1 13.9 0.00 0.00 0.00 42 1010.9
20260504210008 72 144 3.5 12.2 0.00 0.00 0.00 41 1010.8
20260504204510 74 150 5.2 12.2 0.00 0.00 0.00 40 1010.8
20260504203020 76 150 3.5 12.2 0.00 0.00 0.00 37 1010.8
20260504201506 77 148 1.7 8.7 0.00 0.00 0.00 35 1011.0
20260504200010 78 149 0.9 8.7 0.00 0.00 0.00 31 1011.1
20260504194525 78 169 3.5 8.7 0.00 0.00 0.00 32 1011.2
20260504193016 77 255 0.0 5.2 0.00 0.00 0.00 33 1011.6
20260504191511 76 209 0.9 9.6 0.00 0.00 0.00 34 1011.9
20260504190010 75 179 0.0 9.6 0.00 0.00 0.00 34 1012.2
20260504184514 75 193 0.9 7.8 0.00 0.00 0.00 33 1012.4
20260504183012 75 202 0.0 8.7 0.00 0.00 0.00 34 1012.5
20260504181514 74 188 0.9 7.8 0.00 0.00 0.00 34 1012.8
20260504180019 75 161 0.0 9.6 0.00 0.00 0.00 34 1012.9
20260504174512 74 273 1.7 7.0 0.00 0.00 0.00 33 1013.1
20260504173020 74 220 0.9 7.8 0.00 0.00 0.00 35 1013.2
20260504171518 73 207 0.9 7.0 0.00 0.00 0.00 34 1013.4
20260504081521 52 188 0.0 7.8 0.00 0.00 0.00 62 1016.1